LAKE NATOMA (NIMBUS DAM) (NAT)

Elevation: 132' · AMERICAN R basin · Operator: US Bureau of Reclamation

Provisional data, subject to change.
Query executed Monday at 13:53:14   clock

Select a sensor type for a plot of data.
Note: Reservoir Flows are daily averages.

Earlier

Date RES ELE    STORAGE    RES CHG    OUTFLOW    INFLOW    SPILL    DIS PWR   
 FEET   AF   AF   CFS   CFS   CFS   CFS  
08/03/2014 123.84 8186 -19 1481 1473 0 1481
08/04/2014 124.16 8341 155 1480 1560 0 1480
08/05/2014 124.18 8351 10 1491 1497 0 1480
08/06/2014 124.27 8396 45 1500 1524 0 1480
08/07/2014 124.04 8281 -115 1445 1389 861 556
08/08/2014 123.74 8139 -142 1495 1426 571 879
08/09/2014 123.96 8242 103 1545 1600 0 1490
08/10/2014 123.89 8209 -33 1549 1535 0 1489
08/11/2014 123.86 8195 -14 1550 1545 0 1490
08/12/2014 123.82 8176 -19 1501 1494 0 1488
08/13/2014 123.58 8064 -112 1282 1229 0 1277
08/14/2014 123.77 8153 89 1511 1559 0 1496
08/15/2014 123.79 8162 9 1517 1525 0 1497
08/16/2014 123.73 8134 -28 1530 1519 0 1490
08/17/2014 123.46 8007 -127 1546 1485 0 1496
08/18/2014 123.87 8200 193 1539 1639 0 1495
08/19/2014 123.53 8040 -160 1532 1454 0 1492
08/20/2014 123.33 7946 -94 1524 1479 0 1484
08/21/2014 123.61 8078 132 1520 1590 0 1480
08/22/2014 123.78 8158 80 1505 1548 0 1477
08/23/2014 123.94 8233 75 1499 1540 0 1479
08/24/2014 123.88 8205 -28 1495 1484 0 1475
08/25/2014 123.80 8167 -38 1496 1480 0 1476
08/26/2014 123.80 8167 0 1499 1502 0 1479
08/27/2014 123.75 8144 -23 1506 1497 0 1477
08/28/2014 123.90 8214 70 1519 1557 0 1479
08/29/2014 123.99 8256 42 1519 1543 0 1479
08/30/2014 123.83 8181 -75 1519 1484 0 1479
08/31/2014 123.83 8181 0 1522 1525 0 1482
09/01/2014 -- -- -- -- -- -- --

Later | Latest

Warning! This data is preliminary and subject to revision.

Download Data Now Download Data Now | Show NAT Map | Plot NAT Data | 1 Month NAT Data | Real-Time NAT Data | NAT Info